Regional Weather Roundup
Issued by NWS

Home | Current Version | Previous Version | Graphics & Text | Print | Product List | Glossary On
Versions: 1 2 3 4 5 6 7 8 9 10 11 12 13 14 15 16 17 18 19 20 21 22 23 24 25 26 27 28 29 30 31 32 33 34 35 36 37 38 39 40 41 42 43 44 45 46 47 48 49 50
000
ASUS45 KTFX 030410
RWRMT
MONTANA REGIONAL WEATHER ROUNDUP
NATIONAL WEATHER SERVICE GREAT FALLS MT
1000 PM MDT WED SEP 02 2015

NOTE: "FAIR" INDICATES FEW OR NO CLOUDS BELOW 12000 FEET WITH NO
SIGNIFICANT WEATHER AND/OR OBSTRUCTIONS TO VISIBILITY.

MTZ001>007-043-030500-
WEST OF THE DIVIDE

CITY           SKY/WX    TMP DP  RH WIND       PRES   REMARKS
KALISPELL      CLOUDY    59  35  40 SW6       29.89R
MISSOULA       CLOUDY    60  41  49 N12G18    29.91R
BUTTE          MOCLDY    60  37  42 W9        29.92R
MULLAN PASS    CLOUDY    41  36  82 S5        29.96S
DEER LODGE       N/A     61  39  44 N9        29.93R
EUREKA           N/A     59  34  38 E5          N/A
HAMILTON         N/A     61  43  51 NW14      29.86S
LIBBY            N/A     59  39  47 SE3       29.88R
$$

MTZ008-052>055-030500-
SOUTHWEST MONTANA

CITY           SKY/WX    TMP DP  RH WIND       PRES   REMARKS
BOZEMAN        PTCLDY    62  32  32 VRB5      29.79R
DILLON         PTCLDY    64  25  22 S6        29.84R
W YELLOWSTONE  CLEAR     54  28  37 CALM      30.00S
$$

MTZ009-010-012-014-046-048-049-054-030500-
EAST SLOPES AND CENTRAL MONTANA

CITY           SKY/WX    TMP DP  RH WIND       PRES   REMARKS
CUT BANK       CLOUDY    57  38  48 VRB5      29.89R
GREAT FALLS    CLOUDY    64  38  38 N10       29.84R
MALMSTROM AFB  CLOUDY    65  37  36 NE14      29.84R
HELENA         CLOUDY    68  39  34 W12       29.86R
CONRAD           N/A     60  42  51 NW14      29.88R
$$

MTZ011-013-016-021-045-047-050-051-030500-
NORTH CENTRAL MONTANA

CITY           SKY/WX    TMP DP  RH WIND       PRES   REMARKS
HAVRE          MOCLDY    70  37  29 NW3       29.78R
LEWISTOWN      MOCLDY    62  39  42 W9        29.84R
N BAR RANCH      N/A     64  37  36 W8        29.85R
CHINOOK          N/A     70  37  30 W7        29.78R
FORT BENTON      N/A     68  37  32 W7        29.84R
$$

MTZ017>020-022>027-061-062-030500-
NORTHEAST MONTANA

CITY           SKY/WX    TMP DP  RH WIND       PRES   REMARKS
GLASGOW        PTCLDY    70  43  37 N7        29.64R
JORDAN           N/A     69  39  33 W5        29.64R
SIDNEY         MOCLDY    73  46  38 CALM        N/A
WOLF POINT     MOCLDY    76  44  32 E3        29.60S
PLENTYWOOD       N/A     79  39  24 NE10      29.64F
POPLAR           N/A     75  43  31 NE7       29.61S
$$

MTZ028>42-056>058-030500-
SOUTHCENTRAL AND SOUTHEAST MONTANA

CITY           SKY/WX    TMP DP  RH WIND       PRES   REMARKS
BAKER          PTCLDY    71  47  42 SE9       29.72F
BILLINGS       PTCLDY    81  28  14 W9        29.74R
LIVINGSTON     CLEAR     76  25  15 S14       29.80R
MILES CITY     PTCLDY    81  38  21 E6        29.64S
FORSYTH          N/A     84  36  17 CALM      29.63F
$$

REGIONAL REPORTS...DAKOTAS

CITY           SKY/WX    TMP DP  RH WIND       PRES   REMARKS
WILLISTON      MOCLDY    76  52  43 CALM      29.64S
MINOT          PTCLDY    70  60  70 E7        29.70R
DICKINSON      PTCLDY    75  53  46 SE10      29.72S
CROSBY           N/A     77  57  50 SE14G20   29.65S
BISMARCK       CLEAR     73  68  84 SE6       29.74S
GRAND FORKS    CLEAR     75  66  73 SE12      29.81R
FARGO          CLEAR     76  68  76 SE15      29.82S
BUFFALO SD       N/A     74  49  41 E9        29.69F
RAPID CITY     CLEAR     73  50  44 SE6       29.81R
$$

REGIONAL REPORTS...WYOMING/IDAHO/WASHINGTON

CITY           SKY/WX    TMP DP  RH WIND       PRES   REMARKS
GILLETTE       CLEAR     75  35  23 S13       29.84R
SHERIDAN       CLEAR     67  40  37 VRB3      29.77R
BUFFALO WY     PTCLDY    73  33  23 W9        29.88R
CODY           CLEAR     75  36  23 S5        29.87R
YELLOWSTONE LA   N/A     49  36  61 CALM      30.13R
IDAHO FALLS    LGT RAIN  77  37  23 SW12G32   29.86R
SALMON         MOCLDY    64  34  32 NE3       29.77R
BOISE          MOCLDY    72  39  30 NW8       29.73R
SPOKANE        PTCLDY    61  43  51 S9        29.86R
$$

REGIONAL REPORTS...ALBERTA

CITY           SKY/WX    TMP DP  RH WIND       PRES   REMARKS
EDMONTON       LGT RAIN  50  41  71 W2        29.76R
CALGARY        PTCLDY    55  27  33 W10G21    29.81R
LETHBRIDGE     MOCLDY    55  36  47 W15       29.82R
MEDICINE HAT   CLEAR     63  41  45 NW10      29.81R
WATERTON GATE    N/A     54  34  47 SW9G18      N/A
CARDSTON         N/A     52  34  50 SW6         N/A
$$

REGIONAL REPORTS...SASKATCHEWAN

CITY           SKY/WX    TMP DP  RH WIND       PRES   REMARKS
SWIFT CURRENT  PTCLDY    66  37  34 W6        29.77R
REGINA         MOCLDY    66  52  59 N9        29.66S
SASKATOON      MOCLDY    59  54  82 S7        29.66R
CYPRESS HILLS    N/A     61  34  36 NW7         N/A
VAL MARIE        N/A     68  39  34 N12         N/A
ROCKGLEN         N/A     68  43  40 NW7         N/A
$$



USA.gov is the U.S. government's official web portal to all federal, state and local government web resources and services.